sat.trackr.live / text

‹ back to catalog

INTELSAT 905 (IS-905)

NORAD 27438 · 2002-027A

PAYLOAD ACTIVE UNKNOWN

§ Identity

Operator
Country
ITSO
Launch date
2002-06-05
Launch site
FRGUI
Launch vehicle
Mass (kg)
RCS (m²)
15.89

Purposes: comms

External: N2YO · Heavens-Above · Gunter

§ Orbital elements

Epoch: 2026-05-25T02:44:09.886848Z

Period
1,436.07 min
Inclination
6.6983°
Eccentricity
0.0004055
Mean motion
1.00273676 rev/d
Perigee alt
35,769.0 km
Apogee alt
35,803.2 km
Semi-major
42,164.2 km
B*
0.0000e+0
RAAN
70.0753°
Arg perigee
3.0798°
Mean anomaly
73.3823°
Rev number
5,113

§ Raw data

INTELSAT 905 (IS-905)1 27438U 02027A   26145.11400332  .00000092  00000+0  00000+0 0  99962 27438   6.6983  70.0753 0004055   3.0798  73.3823  1.00273676 51139

JSON: /api/v1/satellites/27438 · /tle

For live sub-satellite position, see the globe view (requires WebGL).

§ Visibility from observer

Set your observer location to see the next 7 days of passes ≥ 10°. The values pass through the URL so the page stays shareable.

No JS? Fill the form by hand. The geolocation button needs JavaScript.